Content
SEND FEEDBACK

Daily
Averages
Monthly
Summary
Canada

QUEBEC CITY, QUEBEC


Home > North America > Canada > Quebec
Elevation: 239 feet     Latitude: 46 48N     Longitude: 071 23W

WEATHER
 
SELECT A DAY
Number of Records: 192,115;   Date Range: 6/30/96 - 7/30/14
 
SHARE

PRINT THIS DATA

[ ← Previous Day ]
WEATHER ALMANAC - MARCH 6, 2013
[ Next Day → ]
[ °C ]   °F
Weather ElementAverageHighLow
Temperature34.2 °F36 °F (1:00 pm)32 °F (9:00 pm)
Dewpoint25.8 °F31 °F (1:00 am)23 °F (3:00 pm)
Humidity69.3 %81 % (1:00 am)53 % (4:00 pm)
Barometer30.33 in30.36 in (10:00 am)30.25 in (1:00 am)
Wind Speed14.6 mph21.9 mph (2:00 am)
Wind Gust28.8 mph (2:00 pm)
Weather ElementAverage
Visibility19.1 mi
Wind DirectionENE (68.1 °)

Weather ElementTotal
Precipitation---
Heating Degree Days31 (Base 65)
Averaged from 31 records on March 6, 2013
WEATHER CONDITIONS BREAKOUT
WIND DIRECTION BREAKOUT
WEATHER BY HOUR - MARCH 6, 2013
[ °C ]   °F
Local TimeTemperatureDewpointHumidityBarometerVisibilityWind DirectionWind SpeedGust SpeedPrecipitationEventsConditions
1:00 AM35.0 °F31.0 °F78 %30.25 inEast (80°)11.5 mph
1:00 AM33.8 °F28.4 °F81 %30.26 in10.0 miENE (70°)16.1 mph25.3 mphMostly Cloudy
2:00 AM33.8 °F26.6 °F75 %30.27 in15.0 miENE (70°)21.9 mph27.6 mphMostly Cloudy
3:00 AM33.8 °F28.4 °F81 %30.28 in15.0 miENE (70°)16.1 mph21.9 mphMostly Cloudy
4:00 AM34.0 °F30.0 °F78 %30.28 inEast (80°)11.5 mph
4:00 AM33.8 °F26.6 °F75 %30.29 in15.0 miEast (80°)16.1 mph24.2 mphMostly Cloudy
5:00 AM33.8 °F26.6 °F75 %30.31 in15.0 miENE (70°)21.9 mphMostly Cloudy
6:00 AM33.8 °F26.6 °F75 %30.32 in15.0 miENE (60°)13.8 mph21.9 mphOvercast
7:00 AM34.0 °F29.0 °F74 %30.32 inENE (70°)12.7 mph
7:00 AM33.8 °F26.6 °F75 %30.33 in25.0 miENE (70°)12.7 mph19.6 mphSnowLight Snow Showers
8:00 AM33.8 °F26.6 °F75 %30.34 in25.0 miENE (60°)19.6 mph27.6 mphMostly Cloudy
9:00 AM33.8 °F26.6 °F75 %30.35 in25.0 miENE (70°)19.6 mph27.6 mphMostly Cloudy
10:00 AM35.0 °F28.0 °F66 %30.34 inEast (80°)12.7 mph
10:00 AM35.6 °F26.6 °F70 %30.36 in25.0 miENE (70°)15.0 mph21.9 mphMostly Cloudy
11:00 AM35.6 °F24.8 °F65 %30.36 in25.0 miENE (60°)17.3 mph24.2 mphOvercast
12:00 PM35.6 °F24.8 °F65 %30.36 in25.0 miENE (70°)17.3 mph23.0 mphOvercast
1:00 PM36.0 °F27.0 °F59 %30.35 inENE (70°)12.7 mph
1:00 PM35.6 °F24.8 °F65 %30.36 in25.0 miNE (50°)15.0 mph20.7 mphOvercast
2:00 PM35.6 °F24.8 °F65 %30.36 in15.0 miENE (60°)17.3 mph28.8 mphSnowLight Snow Showers
3:00 PM35.6 °F23.0 °F60 %30.35 in15.0 miENE (70°)16.1 mphSnowLight Snow Showers
4:00 PM36.0 °F25.0 °F53 %30.33 inENE (70°)10.4 mph
4:00 PM35.6 °F23.0 °F60 %30.34 in25.0 miENE (60°)15.0 mph21.9 mphOvercast
5:00 PM33.8 °F23.0 °F65 %30.34 in25.0 miENE (70°)12.7 mphOvercast
6:00 PM33.8 °F23.0 °F65 %30.35 in25.0 miENE (70°)13.8 mph25.3 mphOvercast
7:00 PM34.0 °F24.0 °F57 %30.34 inENE (70°)10.4 mph
7:00 PM33.8 °F23.0 °F65 %30.35 in15.0 miENE (60°)13.8 mph20.7 mphOvercast
8:00 PM33.8 °F23.0 °F65 %30.36 in15.0 miENE (60°)15.0 mph20.7 mphOvercast
9:00 PM32.0 °F23.0 °F69 %30.35 in15.0 miENE (70°)15.0 mphOvercast
10:00 PM33.0 °F26.0 °F68 %30.35 inENE (70°)9.2 mph
10:00 PM32.0 °F24.8 °F75 %30.35 in15.0 miENE (70°)9.2 mph17.3 mphOvercast
11:00 PM32.0 °F24.8 °F75 %30.34 in15.0 miENE (60°)11.5 mph17.3 mphOvercast
Hourly data recorded from CYQB, located miles away from Quebec City, Quebec







STORIES FROM OUR PARTNERS